Location: ??????
(38.5153°N, 23.0340°E)
Time: 13:31:33
(UTC+00:00)

COSMOS 2455 - Pass Details

Date: 13 December 2025
Orbit: 898 x 910 km, 67.1° (Epoch: 17 January)

Event Time Altitude Azimuth Distance (km) Brightness Sun altitude
Rises 17:28:24 0° 218° (SW) 3,514 6.6 -26.7°
Reaches altitude 10° 17:30:56 10° 222° (SW) 2,578 5.8 -27.2°
Maximum altitude 17:36:49 58° 301° (WNW) 1,049 3.3 -28.4°
Enters shadow 17:38:34 43° 355° (N) 1,264 3.5 -28.7°
